Погода в Бухаре

Погода в Бухаре : погода сейчас, прогноз погоды и архив. Всё, что Вы хотите узнать о погоде в Бухаре!

Поиск расширенной информации на нашем сайте:

Другие новости

Новости СМИ2

Главная страница сайта

Новости сайта

02.10.2013

Напоминаем, что на нашем новом сайте вы можете получить высокодетализированные прогнозы погоды по пунктам России, СНГ и мира (включающие важные для авиации метеовеличины, такие как направление и скорость ветра, видимость, явления погоды, количество и форма облачности, нижняя и верхняя граница облачности), а также ознакомиться с разнообразными материалами по авиационной метеорологии и подборкой полезных ссылок на эту тему.

Сайт Метеоцентр.Азия посвящён разработке технологий оптимизации авиаметеорологического обслуживания, включая проектирование и перспективное создание нескольких автоматизированных авиаметеорологических систем:
- система выпуска высокодетальных прогностических карт явлений погоды для нижнего воздушного пространства по России и ближнему зарубежью;
- система верификации прогнозов TAF (выпускаемых синоптиками официальных АМСГ РФ и ближнего зарубежья) и AUTOTAF (выпускаемых сайтом Метеоцентр.Азия) - выявление ошибок, онлайн-сопоставление с фактической погодой METAR, автоматическое внесение коррективов в прогнозы при резком отклонении фактической погоды от прогноза, подсчёт оправдываемости прогнозов по элементам и в целом;
- система обработки, анализа и отображения авиаметеорологической информации для применения провайдерами метеорологической информации.

Рекомендуем: купить сейф для денег

Погода в Бухаре - сегодня

Время (UTC), дата Ветер
(°,м/с) 
Видим.   Явления Облачность Т
(°С)
Тd
(°С)
f(%) Тe
(°С)
Pmin
(гПа)
dP
(гПа)
Po
(мм)
O2
(г/м3)
Тmin Tmax R s Состояние
почвы
12 25.05.17 360 (С) 10 км    8/0 средняя 
[Ac trans]
+35.3 +4.6 15 +35  1008  -0.8  737  262           
15 25.05.17 360 (С) 10 км    ясно 
+30.5 +9.9 28 +32  1009  0.7  738  266    +35.8       
18 25.05.17 360 (С) 10 км    ясно 
+25 +8.2 34 +25  1010.2  0.7  738  271    +35.8       
21 25.05.17 070 (В) 10 км    ясно 
+21.6 +9.3 45 +22  1009.7  -0.8  738  274           
00 26.05.17 020 (С) 10 км    ясно 
+21 +12.9 60 +27  1010.4  0.7  738  274           
03 26.05.17 070 (В) 10 км    ясно 
+27.8 +12.4 39 +33  1010.9  739  268           
06 26.05.17 тихо ()   10 км    4/0 верхняя 
[Ci fib]
+34.3 +11.8 26 +38  1010.9  0.5  739  263  +20.5         
09 26.05.17 320 (СЗ) 10 км    10/0 верхняя 
[Ci fib]
+37 +4.1 13 +37  1010.1  -0.5  739  262           
12 26.05.17 340 (С) 10 км    4/0 верхняя 
[Ci fib]
+36.8 +5.1 14 +37  1008.9  -1.2  738  261           
18 26.05.17 290 (З) 10 км    ясно 
+28.5 +9.3 30 +29  1009.3  0.2  738  268    +37.2       
21 26.05.17 320 (СЗ) 10 км    ясно 
+24.8 +10.4 40 +27  1009.4  -0.2  738  271           
00 27.05.17 320 (СЗ) 10 км    ясно 
+23.5 +9 40 +24  1009.7  0.2  738  272           
06 27.05.17 360 (С) 10 км    ясно 
+31.6 +2.4 16 +32  1010  0.3  739  266  +21.1         
09 27.05.17 360 (С) 10 км    ясно 
+34.8 +4.3 15 +35  1008.8  -1  738  263           
12 27.05.17 360 (С) 10 км    ясно 
+35.8 +4.3 14 +36  1007  -1.6  737  262           
18 27.05.17 360 (С) 10 км    ясно 
+26.7 +4.1 23 +27  1008.3  0.7  737  270    +36.5       
21 27.05.17 360 (С) 10 км    ясно 
+21.3 +4.6 33 +21  1007.9  -0.8  736  275           
00 28.05.17 тихо ()   10 км    ясно 
+20.6 +4 34 +21  1007.7  -0.2  736  275           
06 28.05.17 360 (С) 10 км    ясно 
+34.8 +4.3 15 +35  1007.2  0.4  737  263  +20.4         
09 28.05.17 090 (В) 10 км    ясно 
+38.2 +1.9 10 +38  1005.7  -1.3  736  260           
12 28.05.17 020 (С) 10 км    ясно 
+39 +2.5 10 +39  1004.4  -1.2  742  261           
15 28.05.17 тихо ()   10 км    ясно 
+33 +12.2 28 +38  1004.6  -0.2  735  262    +39.2       
18 28.05.17 050 (СВ) 10 км    ясно 
+28 +10 32 +30  1005.4  0.3  735  267    +39.2       
21 28.05.17 110 (В) 10 км    ясно 
+22.5 +10.5 47 +25  1005  -0.8  734  271           
00 29.05.17 тихо ()   10 км    ясно 
+20.4 +9.5 50 +21  1004.6  -0.5  734  274           
Время (UTC), дата Ветер
(°,м/с) 
Видим.   Явления Облачность Т
(°С)
Тd
(°С)
f(%) Тe
(°С)
Pmin
(гПа)
dP
(гПа)
Po
(мм)
O2
(г/м3)
Тmin Tmax R s Состояние
почвы

Для получения пояснительной информации подведите курсор к названию столбца.

ПОГОДА в Бухаре - архив

Всё, что Вы хотите узнать о погоде в Бухаре - удобно и подробно!

Выберите нужную дату (начиная с 1 января 2015* года) и нажмите кнопку "Найти".
Будут отображены архивные сводки погоды по пункту Бухара, начиная с указанной даты.


Отображать данные в формате CSV (для использования в таблицах Excel)


Внимание! Наш архив погоды предназначен исключительно для личного некоммерческого использования в познавательных целях. Если Вам необходимы официальные справки о состоянии погоды (для производственных, юридических, коммерческих и т.п. целей), обращайтесь в органы Росгидромета.

*Примечание: данная дата относится к архиву по метеостанциям СССР (Россия, СНГ, Балтия).
Архив по метеостанциям Зарубежной Европы и Азии (кроме Китая) хранится 10 дней, по другим регионам земного шара (Китай, Африка, Америка, Австралия, Океания) - 1 день.

Бухара - район местоположения метеостанции


Название, широта, долгота, высота метеостанции:
Бухара 39.7°ш. 64.6°д. 226 м над ур. моря [Узбекистан]

Дополнительная информация

В oтличие oт бoльшинства пoгoдных сайтoв мы публикуем пoдрoбную метеoинфoрмацию в детальнoм прoфессиoнальнoм фoрмате.

Характеристики температуры и влажнoсти вoздуха измеряются на высoте 2 м в тени вдали oт зданий и деревьев.
Скoрoсть ветра измеряется на высoте 10 м (на урoвне рoста челoвека скoрoсть ветра ниже в 1.5-2 раза). Если метеoстанция нахoдится в гoрoде или в лесу, тo скoрoсть ветра занижена на 2-4 м/с пo сравнению с oткрытым местoм. Скoрoсть ветра над акватoриями крупных рек и oзёр, а также на вершинах хoлмoв на 2-5 м/с выше, чем в oбычных услoвиях.
Атмoсфернoе давление в разных тoчках местнoсти мoжет значительнo oтличаться oт давления на метеoстанции, в зависимoсти oт услoвий рельефа (при пoдъёме на 10 м давление пoнижается примернo на 1 мм рт.ст.).